Tracking 29892 objects as of 21-Nov-2024
HD Live streaming from Space Station
objects crossing your sky now

ARIANE 44LP+ R/B

Track ARIANE 44LP+ R/B now!


NORAD ID: 23127
Int'l Code: 1994-034D
Perigee: 423.1 km
Apogee: 35,858.7 km
Inclination: 6.9 °
Period: 636.5 minutes
Semi major axis: 24511 km
RCS: 21.9181 m2 (large)
Launch date: June 17, 1994
Source: France (FR)
Launch site: FRENCH GUIANA (FRGUI)

Note: This is a ROCKET BODY
Your satellite tracking list
Your tracking list is empty




NASA's NSSDC Master Catalog

Two Line Element Set (TLE):
1 23127U 94034D   24325.60944570  .00000717  00000-0  26812-2 0  9992
2 23127   6.9325 176.0230 7228233  44.2047 354.7879  2.26222952248626
Source of the keplerian elements: AFSPC